Regional Weather Roundup
Issued by NWS Green Bay, WI

Home | Current Version | Previous Version | Graphics & Text | Print | Product List | Glossary Off
Versions: 1 2 3 4 5 6 7 8 9 10 11 12 13 14 15 16 17 18 19 20 21 22 23 24 25 26 27 28 29 30 31 32 33 34 35 36 37 38 39 40 41 42 43 44 45 46 47 48 49 50

000
ASUS43 KGRB 202159
RWRGRB

NORTH-CENTRAL AND NORTHEAST WISCONSIN REGIONAL WEATHER ROUNDUP
NATIONAL WEATHER SERVICE GREEN BAY WI
500 PM CDT MON OCT 20 2014

WIZ005-009-010>012-018-019-202300-
NORTH CENTRAL WISCONSIN

CITY           SKY/WX    TMP DP  RH WIND       PRES   REMARKS
IRONWOOD       CLOUDY    46  45  93 NW9       29.98R
MANITOWISH WTR NOT AVBL
ARBOR VITAE    NOT AVBL
EAGLE RIVER    NOT AVBL
LAND O LAKES   NOT AVBL
RHINELANDER    LGT RAIN  44  42  93 NW6       29.97R FOG
PHILLIPS       NOT AVBL
ANTIGO         NOT AVBL
TOMAHAWK       NOT AVBL
MERRILL        NOT AVBL
$$

WIZ013-073-202300-
NORTHEAST WISCONSIN

CITY           SKY/WX    TMP DP  RH WIND       PRES   REMARKS
IRON MOUNTAIN  CLOUDY    47  42  83 NW12      29.93R
MARINETTE      CLOUDY    52  41  66 N9        29.91R
$$

WIZ017-030-035>037-045-202300-
CENTRAL WISCONSIN

CITY           SKY/WX    TMP DP  RH WIND       PRES   REMARKS
MEDFORD        NOT AVBL
WAUSAU         CLOUDY    50  40  68 NW8       29.95R
MOSINEE        CLOUDY    48  43  81 N12G20    29.97R
MARSHFIELD     CLOUDY    53  39  59 N10       29.97R
WISC RAPIDS    CLOUDY    53  40  61 N14       29.98R
STEVENS POINT  NOT AVBL
WAUPACA        NOT AVBL
SHAWANO        NOT AVBL
CLINTONVILLE   NOT AVBL
$$

WIZ038-039-048-051-202300-
FOX VALLEY

CITY           SKY/WX    TMP DP  RH WIND       PRES   REMARKS
NWS GREEN BAY  CLOUDY    52  44  74 NW12      29.94R
APPLETON       CLOUDY    52  43  71 NW12      29.94R
OSHKOSH        CLOUDY    52  44  74 NW8       29.93R
FOND DU LAC    CLOUDY    53  42  66 N12       29.93R
$$

WIZ022-050-052-202300-
EAST CENTRAL WISCONSIN

CITY           SKY/WX    TMP DP  RH WIND       PRES   REMARKS
STURGEON BAY   CLOUDY    50  43  76 N9        29.92R
MANITOWOC      NOT AVBL
SHEBOYGAN      CLOUDY    53  41  63 N8        29.92R
$$

LMZ563-521-522-541>543-202300-
LAKESHORE

STATION/POSITION TIME  TEMP    WIND        PRES    VSBY  WAVE
                       AIR SEA DIR/SP/G                  HT/PER
                 (UTC) (F)     (DEG/KT/KT) (MB)    (MI)  (FT/S)
SHEBOYGAN LKSHOR 2100   53 51  320/ 10/ 12 1012.9R
KEWAUNEE LKSHORE 2100   52     350/  6/ 11 1011.9R
TWO RIVERS CG    2100   52                 1012.8      6   2
NORTHPORT PIER   2100   49     350/ 18/ 21 1012.5R
N MID LAKE BUOY  2100   48 51  340/ 19/ 23 1011.5R         3/ 4
STURGEON BAY CG  2100   51 50  300/  5     1012.4      6   2
CHAMBERS ISLAND  2100   51     300/ 11/ 19 1012.5R
MENOMINEE LKSHOR 2100   51     320/ 14/ 17 1013.3R
$$



USA.gov is the U.S. government's official web portal to all federal, state and local government web resources and services.